{"data":{"norad_id":63985,"epoch":"2026-09-21T19:47:09.856896Z","epoch_age_seconds":85040,"freshness":"FRESH","line1":"1 63985U 25100D   26264.82441964  .00011339  00000+0  44784-3 0  9993","line2":"2 63985  97.3593 339.8255 0004870 314.3565  45.7274 15.25668111 75603","mean_motion":15.25668111,"eccentricity":0.000487,"inclination_deg":97.3593,"raan_deg":339.8255,"arg_perigee_deg":314.3565,"mean_anomaly_deg":45.7274,"bstar":0.00044784,"rev_number":7560,"period_min":94.384878966642,"perigee_km":485.43576855578,"apogee_km":492.12414567201,"semimajor_km":6866.9169571139,"source":"CELESTRAK","updated_at":"2026-09-22T09:00:29.478191Z"}}